CW8948 Weather Reports


Display with metric or nautical units.
time (UTC)temp
F
wind
direction
speed
MPH
gust
MPH
rain 1hr
in
rain 24hr
in
rain mn
in
humidity
%
barometer
mb
20260508202618 73 266 6.0 11.0 0.00 0.00 0.00 22 1016.2
20260508201619 73 279 7.0 12.0 0.00 0.00 0.00 21 1016.2
20260508200625 73 297 7.0 12.0 0.00 0.00 0.00 22 1016.2
20260508195626 73 319 6.0 11.0 0.00 0.00 0.00 22 1016.2
20260508194627 73 321 6.0 11.0 0.00 0.00 0.00 24 1016.2
20260508193628 73 334 1.0 9.0 0.00 0.00 0.00 27 1016.3
20260508192630 72 326 2.0 8.0 0.00 0.00 0.00 28 1016.4
20260508191655 72 346 1.0 7.0 0.00 0.00 0.00 29 1016.5
20260508190637 72 286 7.0 9.0 0.00 0.00 0.00 27 1016.5
20260508185620 71 355 4.0 9.0 0.00 0.00 0.00 29 1016.5
20260508184620 71 331 4.0 8.0 0.00 0.00 0.00 29 1016.7
20260508183621 71 221 3.0 8.0 0.00 0.00 0.00 31 1016.8
20260508182628 71 300 3.0 6.0 0.00 0.00 0.00 31 1016.8
20260508181631 71 207 5.0 9.0 0.00 0.00 0.00 30 1016.8
20260508180626 70 222 4.0 7.0 0.00 0.00 0.00 30 1016.8
20260508175630 71 215 3.0 8.0 0.00 0.00 0.00 32 1017.0
20260508174629 70 244 2.0 5.0 0.00 0.00 0.00 32 1017.0
20260508173628 69 302 3.0 6.0 0.00 0.00 0.00 32 1017.0
20260508172634 69 267 3.0 6.0 0.00 0.00 0.00 31 1017.1
20260508171633 69 239 1.0 5.0 0.00 0.00 0.00 33 1017.0
20260508170632 68 225 3.0 5.0 0.00 0.00 0.00 32 1017.0
20260508165632 68 234 4.0 8.0 0.00 0.00 0.00 35 1017.0
20260508164632 68 240 1.0 7.0 0.00 0.00 0.00 36 1016.9
20260508163617 67 279 2.0 4.0 0.00 0.00 0.00 38 1016.8
20260508162616 67 281 3.0 7.0 0.00 0.00 0.00 39 1016.8
20260508161635 67 232 1.0 4.0 0.00 0.00 0.00 40 1016.8
20260508160639 66 222 3.0 4.0 0.00 0.00 0.00 39 1016.8
20260508155621 65 259 2.0 4.0 0.00 0.00 0.00 40 1016.8
20260508154626 64 261 3.0 6.0 0.00 0.00 0.00 55 1016.8
20260508153646 63 280 2.0 5.0 0.00 0.00 0.00 60 1016.8
20260508152627 62 279 3.0 7.0 0.00 0.00 0.00 63 1016.8
20260508151629 63 296 3.0 5.0 0.00 0.00 0.00 61 1016.7
20260508150635 64 289 1.0 4.0 0.00 0.00 0.00 55 1016.5
20260508145634 63 55 0.0 2.0 0.00 0.00 0.00 52 1016.5
20260508144634 62 55 0.0 0.0 0.00 0.00 0.00 51 1016.4
20260508143617 61 55 0.0 0.0 0.00 0.00 0.00 49 1016.4
20260508142617 60 55 0.0 0.0 0.00 0.00 0.00 51 1016.3
20260508141621 59 55 0.0 1.0 0.00 0.00 0.00 52 1016.2
20260508140640 58 55 0.0 0.0 0.00 0.00 0.00 52 1016.3
20260508135623 56 55 0.0 2.0 0.00 0.00 0.00 54 1016.2
20260508134645 55 55 0.0 0.0 0.00 0.00 0.00 55 1016.1
20260508133627 54 55 0.0 2.0 0.00 0.00 0.00 58 1016.0
20260508132630 52 55 0.0 0.0 0.00 0.00 0.00 61 1015.9
20260508131616 52 55 0.0 0.0 0.00 0.00 0.00 61 1015.7
20260508130617 52 55 0.0 0.0 0.00 0.00 0.00 61 1015.6
20260508125635 52 55 0.0 0.0 0.00 0.00 0.00 60 1015.6
20260508124656 52 55 0.0 3.0 0.00 0.00 0.00 59 1015.4
20260508123618 53 55 0.0 3.0 0.00 0.00 0.00 59 1015.2
20260508122620 53 55 0.0 3.0 0.00 0.00 0.00 57 1015.2
20260508121624 53 55 0.0 1.0 0.00 0.00 0.00 58 1015.0
20260508120625 53 55 1.0 3.0 0.00 0.00 0.00 56 1014.9
20260508115626 53 54 2.0 4.0 0.00 0.00 0.00 59 1014.9
20260508114629 53 333 1.0 3.0 0.00 0.00 0.00 61 1014.8
20260508113630 52 355 1.0 6.0 0.00 0.00 0.00 62 1014.8
20260508112634 53 5 0.0 1.0 0.00 0.00 0.00 62 1014.8
20260508111633 53 68 0.0 3.0 0.00 0.00 0.00 60 1014.6
20260508110654 53 68 0.0 0.0 0.00 0.00 0.00 59 1014.7
20260508105648 54 68 2.0 4.0 0.00 0.01 0.00 59 1014.6
20260508104634 54 125 0.0 4.0 0.00 0.01 0.00 59 1014.6
20260508103634 53 126 1.0 3.0 0.00 0.01 0.00 63 1014.7
20260508102651 53 125 0.0 0.0 0.00 0.01 0.00 64 1014.7
20260508101634 53 125 0.0 2.0 0.00 0.01 0.00 65 1014.7
20260508100618 53 125 0.0 4.0 0.00 0.01 0.00 68 1014.7
20260508095620 52 126 2.0 4.0 0.00 0.01 0.00 67 1014.7
20260508094623 52 138 0.0 0.0 0.00 0.01 0.00 67 1014.6
20260508093626 53 138 0.0 0.0 0.00 0.01 0.00 65 1014.6
20260508092648 54 138 0.0 0.0 0.00 0.01 0.00 64 1014.4
20260508091649 54 138 0.0 0.0 0.00 0.01 0.00 62 1014.3
20260508090651 54 138 0.0 0.0 0.00 0.01 0.00 61 1014.2
20260508085626 54 138 0.0 0.0 0.00 0.01 0.00 60 1014.0
20260508084627 55 138 0.0 0.0 0.00 0.01 0.00 59 1014.2
20260508083647 55 138 0.0 0.0 0.00 0.01 0.00 57 1014.2
20260508082624 56 138 0.0 1.0 0.00 0.01 0.00 57 1014.2
20260508081628 56 138 1.0 4.0 0.00 0.01 0.00 57 1014.2
20260508080631 56 137 4.0 5.0 0.00 0.01 0.00 58 1014.2
20260508075628 56 73 2.0 4.0 0.00 0.01 0.00 58 1014.2
20260508074649 56 29 0.0 0.0 0.00 0.01 0.00 61 1014.4
20260508073627 56 29 1.0 2.0 0.00 0.01 0.00 61 1014.4
20260508072645 56 29 0.0 0.0 0.00 0.01 0.00 62 1014.3
20260508071629 56 28 0.0 0.0 0.00 0.01 0.00 62 1014.2
20260508070652 57 28 0.0 3.0 0.00 0.01 0.00 61 1014.2
20260508065634 58 28 0.0 2.0 0.00 0.01 0.00 59 1014.1
20260508064651 57 29 1.0 3.0 0.00 0.01 0.00 57 1014.0
20260508063632 58 29 0.0 2.0 0.00 0.01 0.00 58 1013.8
20260508062617 58 29 2.0 3.0 0.00 0.01 0.00 58 1013.8
20260508061620 59 28 2.0 5.0 0.00 0.01 0.00 50 1013.9
20260508060624 59 34 4.0 5.0 0.00 0.01 0.00 48 1013.9
20260508055621 59 179 0.0 3.0 0.00 0.02 0.01 47 1013.8
20260508054623 60 180 0.0 1.0 0.00 0.02 0.01 45 1013.7
20260508053646 60 180 0.0 4.0 0.00 0.02 0.01 47 1013.6
20260508052630 60 179 2.0 5.0 0.00 0.02 0.01 52 1013.5
20260508051629 61 113 0.0 0.0 0.00 0.02 0.01 53 1013.4
20260508050649 62 113 0.0 0.0 0.00 0.02 0.01 58 1013.4
20260508045649 63 113 0.0 0.0 0.00 0.02 0.01 49 1013.4
20260508044632 63 113 0.0 0.0 0.00 0.02 0.01 40 1013.4
20260508043616 64 113 0.0 0.0 0.00 0.02 0.01 52 1013.3
20260508042635 65 113 0.0 0.0 0.00 0.02 0.01 49 1013.3
20260508041634 66 113 0.0 0.0 0.00 0.02 0.01 37 1013.3
20260508040617 66 113 0.0 2.0 0.00 0.02 0.01 33 1013.2
20260508035621 67 113 1.0 3.0 0.00 0.03 0.01 32 1013.1
20260508034628 67 113 1.0 2.0 0.00 0.03 0.01 33 1013.1
20260508033629 67 113 0.0 0.0 0.00 0.03 0.01 33 1013.0
20260508032629 68 113 0.0 2.0 0.00 0.03 0.01 31 1012.9
20260508031633 68 113 2.0 4.0 0.00 0.03 0.01 31 1012.9
20260508030620 69 131 2.0 4.0 0.00 0.03 0.01 31 1012.8
20260508025619 70 144 1.0 3.0 0.00 0.03 0.01 31 1012.7
20260508024618 71 220 2.0 3.0 0.00 0.03 0.01 31 1012.7
20260508023619 73 220 0.0 2.0 0.00 0.03 0.01 41 1012.7
20260508022620 74 220 0.0 0.0 0.00 0.03 0.01 27 1012.6
20260508021628 75 220 0.0 0.0 0.00 0.03 0.01 30 1012.6
20260508020632 75 220 0.0 0.0 0.00 0.03 0.01 24 1012.6
20260508015656 76 220 0.0 1.0 0.00 0.04 0.01 28 1012.5
20260508014635 76 220 0.0 2.0 0.00 0.04 0.01 28 1012.5
20260508013622 76 220 2.0 3.0 0.00 0.04 0.01 23 1012.6
20260508012644 76 220 1.0 2.0 0.00 0.04 0.01 23 1012.7
20260508011641 77 220 2.0 3.0 0.00 0.04 0.01 23 1012.7
20260508010624 77 219 0.0 3.0 0.00 0.04 0.01 23 1012.7
20260508005626 77 219 1.0 3.0 0.00 0.05 0.01 22 1012.7
20260508004646 77 219 2.0 3.0 0.00 0.05 0.01 22 1012.7
20260508003630 77 219 1.0 4.0 0.00 0.05 0.01 23 1012.6
20260508002633 77 219 2.0 4.0 0.00 0.05 0.01 23 1012.8
20260508001616 76 300 1.0 4.0 0.00 0.05 0.01 23 1013.0
20260508000631 76 5 4.0 5.0 0.00 0.05 0.01 24 1013.1
20260507235633 76 221 2.0 4.0 0.00 0.05 0.01 23 1013.1
20260507234618 76 20 3.0 6.0 0.00 0.05 0.01 26 1013.2
20260507233621 75 347 3.0 5.0 0.00 0.05 0.01 25 1013.3
20260507232621 75 20 1.0 5.0 0.00 0.05 0.01 24 1013.4
20260507231622 75 343 3.0 8.0 0.00 0.05 0.01 26 1013.5
20260507230623 75 355 3.0 6.0 0.00 0.05 0.01 25 1013.7
20260507225628 75 13 3.0 8.0 0.00 0.06 0.01 26 1013.9
20260507224630 74 293 3.0 8.0 0.00 0.06 0.01 25 1014.0
20260507223635 73 304 2.0 5.0 0.00 0.06 0.01 26 1014.3
20260507222657 73 296 3.0 8.0 0.00 0.06 0.01 26 1014.4
20260507221623 73 298 3.0 6.0 0.00 0.06 0.01 26 1014.5
20260507220624 73 281 4.0 8.0 0.00 0.06 0.01 27 1014.6
20260507215631 74 284 5.0 11.0 0.00 0.07 0.01 25 1014.7
20260507214633 74 276 6.0 9.0 0.00 0.07 0.01 25 1014.8
20260507213635 73 302 6.0 13.0 0.00 0.07 0.01 24 1015.0
20260507212623 74 284 8.0 11.0 0.00 0.07 0.01 25 1015.0
20260507211625 74 200 6.0 10.0 0.00 0.07 0.01 24 1015.1
20260507210629 74 234 5.0 11.0 0.00 0.07 0.01 23 1015.3
20260507205632 74 248 8.0 11.0 0.00 0.08 0.01 25 1015.4
20260507204617 73 275 4.0 8.0 0.00 0.08 0.01 22 1015.5
20260507203640 72 271 2.0 7.0 0.00 0.08 0.01 23 1015.7